This is the latest recevied weather packets stored in our database for station/object N3FWE. If no packets are shown the sender has not sent any weather packets the latest 10 day(s).
| Time | Temp. | Humidity | Pressure | Rain* | Wind** | Luminosity | Snow |
|---|---|---|---|---|---|---|---|
| 1777345812 | 12.22° C | 75% | 1023.4 hPa | 0 mm | - | - | - |
| 1777345211 | 12.22° C | 74% | 1023.3 hPa | 0 mm | - | - | - |
| 1777344611 | 12.78° C | 73% | 1023.6 hPa | 0 mm | - | - | - |
| 1777344012 | 12.78° C | 73% | 1023.7 hPa | 0 mm | - | - | - |
| 1777343412 | 12.78° C | 73% | 1023.7 hPa | 0 mm | - | - | - |
| 1777342812 | 13.33° C | 72% | 1023.8 hPa | 0 mm | - | - | - |
| 1777342213 | 13.33° C | 72% | 1023.8 hPa | 0 mm | - | - | - |
| 1777341612 | 13.33° C | 71% | 1023.8 hPa | 0 mm | - | - | - |
| 1777341013 | 13.89° C | 69% | 1023.8 hPa | 0 mm | - | - | - |
| 1777340413 | 13.89° C | 69% | 1023.7 hPa | 0 mm | - | - | - |
| 1777339812 | 13.89° C | 67% | 1023.6 hPa | 0 mm | - | - | - |
| 1777339212 | 14.44° C | 66% | 1023.5 hPa | 0 mm | - | - | - |
| 1777338612 | 15° C | 64% | 1023.4 hPa | 0 mm | - | - | - |
| 1777338012 | 15.56° C | 63% | 1023.5 hPa | 0 mm | - | - | - |
| 1777337412 | 16.11° C | 62% | 1023.4 hPa | 0 mm | - | - | - |
| 1777336811 | 16.11° C | 59% | 1023.4 hPa | 0 mm | - | - | - |
| 1777336211 | 16.67° C | 58% | 1023.4 hPa | 0 mm | - | - | - |
| 1777335610 | 17.22° C | 56% | 1023.2 hPa | 0 mm | - | - | - |
| 1777335010 | 17.78° C | 52% | 1023.2 hPa | 0 mm | - | - | - |
| 1777334411 | 18.33° C | 50% | 1023.2 hPa | 0 mm | - | - | - |
| 1777333811 | 18.89° C | 49% | 1023.1 hPa | 0 mm | - | - | - |
| 1777333210 | 18.89° C | 49% | 1023.1 hPa | 0 mm | - | - | - |
| 1777332610 | 19.44° C | 47% | 1023.1 hPa | 0 mm | - | - | - |
| 1777332011 | 19.44° C | 47% | 1022.8 hPa | 0 mm | - | - | - |
| 1777331410 | 20° C | 45% | 1022.9 hPa | 0 mm | - | - | - |
* Rain latest hour (hover to see other rain measurements)
** Current wind speed in m/s (hover to see current wind gust speed)